[[{"header":{"parameterUnit":"m.s-1","parameterCategory":1,"la1":30.2991,"la2":30.254,"lo1":-89.0895,"lo2":-89.0444,"dy":0.0017,"dx":0.0017,"nx":28,"ny":28,"refTime":"2024-05-16T09:00:00:Z","depth":0,"parameterNumber":2,"parameterNumberName":"U-component_of_WINDS"},"data":[0,0,0,0,0,0,0,0,0,0,0,0,0,0,0,0,0,0,0,0,0,0,0,0,0,0,0,0,0,0,0,0,0,0,0,0,0,0,0,0,0,0,0,0,0,0,0,0,0,0,0,0,0,0,0,0,0,0,-1.1761,-1.1761,0,-1.1767,-1.1767,-1.1767,-1.1676,-1.1674,-1.1671,-1.1669,-1.1681,-1.1683,-1.1686,0,0,0,0,0,0,0,0,0,0,0,0,0,-1.1674,-1.1676,-1.1761,-1.1761,-1.1761,-1.1767,-1.1767,-1.1767,-1.1677,-1.1674,-1.1671,-1.1668,-1.168,-1.1683,-1.1686,0,0,0,0,0,0,0,0,0,0,0,0,0,-1.17,-1.1677,-1.1761,-1.1716,-1.1712,-1.1767,-1.1767,-1.1767,-1.1677,-1.1674,-1.167,-1.1666,-1.1679,-1.1683,-1.1687,-1.1785,0,0,-1.1699,-1.17,0,0,0,0,0,0,0,0,-1.1698,-1.1703,-1.1723,-1.1719,-1.1715,-1.1717,-1.1741,-1.1774,-1.1678,-1.1691,-1.1669,-1.1665,-1.1696,-1.1698,-1.1708,-1.1786,-1.1786,-1.1699,-1.1701,-1.1703,-1.1704,0,0,0,0,0,0,0,-1.1697,-1.1702,-1.1763,-1.1723,-1.1718,-1.1698,-1.1697,-1.1747,-1.1715,-1.1689,-1.1683,-1.1685,-1.1693,-1.1704,-1.1708,-1.1787,-1.1699,-1.1702,-1.1705,-1.1706,-1.1948,-1.1952,0,0,0,0,0,0,-1.17,-1.1701,-1.1763,-1.1763,-1.1697,-1.1702,-1.1701,-1.172,-1.1714,-1.1709,-1.1688,-1.168,-1.1699,-1.1703,-1.1708,-1.1824,-1.1703,-1.1707,-1.1709,-1.1944,-1.1949,-1.1953,0,0,0,0,0,0,-1.1699,-1.1707,-1.1763,-1.1731,-1.1736,-1.1707,-1.1729,-1.1722,-1.1733,-1.1712,-1.1707,-1.1705,-1.1697,-1.1702,-1.1767,-1.1824,-1.1708,-1.1712,-1.1939,-1.1945,-1.1951,-1.2058,0,0,0,0,0,0,-1.1697,-1.1707,-1.1743,-1.1732,-1.1738,-1.1821,-1.1733,-1.1725,-1.174,-1.173,-1.1727,-1.1723,-1.1694,-1.1761,-1.1771,-1.1827,-1.1715,-1.1934,-1.1942,-1.1949,-1.205,-1.2067,-1.2082,0,0,0,0,0,-1.1694,-1.1774,-1.1745,-1.1753,-1.1783,-1.1824,-1.1828,-1.1792,-1.1744,-1.1782,-1.1768,-1.1723,-1.1815,-1.1769,-1.1778,-1.1837,-1.193,-1.1939,-1.1948,-1.2042,-1.2064,-1.2082,0,0,0,0,0,0,-1.1794,-1.1772,-1.174,-1.1818,-1.1824,-1.1809,-1.1854,-1.1816,-1.1836,-1.1827,-1.1783,-1.1783,-1.1855,-1.1852,-1.1801,-1.1933,-1.1865,-1.1876,-1.1933,-1.1953,-1.1969,-1.197,-1.1718,0,0,0,0,0,-1.1825,-1.1859,-1.1838,-1.1909,-1.1913,-1.1884,-1.19,-1.1872,-1.1877,-1.1879,-1.187,-1.1878,-1.1909,-1.193,-1.1957,-1.2048,-1.2047,-1.2093,-1.2109,-1.2123,-1.2134,-1.2183,-1.2204,-1.1983,-1.1983,-1.1983,0,0,-1.189,-1.1881,-1.1906,-1.1929,-1.193,-1.1968,-1.1886,-1.193,-1.1958,-1.1886,-1.1947,-1.1941,-1.1946,-1.2025,-1.2059,-1.2025,-1.2194,-1.2134,-1.2145,-1.2149,-1.2195,-1.2216,-1.2235,-1.1989,-1.1988,-1.1987,0,0,-1.2027,-1.2024,-1.2083,-1.2086,-1.2087,-1.2067,-1.2081,-1.2072,-1.2065,-1.2125,-1.2072,-1.2106,-1.2159,-1.2166,-1.2176,-1.2316,-1.2276,-1.2326,-1.2413,-1.2462,-1.2479,-1.2495,-1.2547,-1.2566,-1.2337,-1.2337,-1.2338,0,-1.2108,-1.2162,-1.2119,-1.2166,-1.2179,-1.2113,-1.2175,-1.2179,-1.2191,-1.2202,-1.2162,-1.2228,-1.2227,-1.2307,-1.2342,-1.2351,-1.2368,-1.2328,-1.248,-1.2495,-1.2508,-1.2558,-1.2577,-1.2344,-1.2343,-1.2342,-1.2342,0,-1.2262,-1.23,-1.2348,-1.236,-1.2377,-1.2432,-1.2399,-1.2422,-1.2392,-1.2376,-1.2439,-1.2435,-1.2461,-1.2477,-1.2449,-1.2554,-1.2532,-1.2487,-1.2418,-1.2536,-1.2582,-1.2601,-1.2353,-1.235,-1.2348,-1.2347,0,0,-1.2465,-1.2451,-1.247,-1.2475,-1.2472,-1.2501,-1.2553,-1.2576,-1.2598,-1.2608,-1.2652,-1.2698,-1.2656,-1.2668,-1.264,-1.2682,-1.2796,-1.2632,-1.2631,-1.2664,-1.2914,-1.295,-1.2972,-1.2768,-1.2771,-1.2774,-1.2914,0,-1.2601,-1.2687,-1.265,-1.274,-1.2776,-1.2714,-1.2759,-1.2763,-1.275,-1.278,-1.2765,-1.28,-1.274,-1.2747,-1.2786,-1.2774,-1.2846,-1.2763,-1.2811,-1.2813,-1.2814,-1.2995,-1.3034,-1.3166,-1.2931,-1.2934,-1.2936,0,-1.2771,-1.2787,-1.2881,-1.2872,-1.2886,-1.2927,-1.2946,-1.2974,-1.2978,-1.2965,-1.2978,-1.2941,-1.2992,-1.2922,-1.2994,-1.2938,-1.2955,-1.2952,-1.2956,-1.2961,-1.2884,-1.3008,-1.3207,-1.3228,-1.2964,-1.2961,-1.2959,0,-1.2913,-1.2957,-1.3019,-1.3025,-1.3016,-1.3047,-1.3044,-1.3044,-1.3061,-1.3078,-1.3089,-1.3112,-1.3126,-1.3145,-1.3116,-1.3067,-1.3193,-1.3119,-1.3186,-1.3187,-1.3217,-1.3217,-1.3425,-1.3225,-1.3224,-1.3224,-1.3223,0,-1.307,-1.3131,-1.3083,-1.3122,-1.3188,-1.3145,-1.3212,-1.3203,-1.3204,-1.3241,-1.3188,-1.3225,-1.3182,-1.3215,-1.3192,-1.3256,-1.3262,-1.3255,-1.3249,-1.3261,-1.3262,-1.3274,-1.3265,-1.3229,-1.3228,-1.3227,-1.3226,0,-1.324,-1.3211,-1.3275,-1.326,-1.3258,-1.3308,-1.3296,-1.3332,-1.3314,-1.3362,-1.3371,-1.3344,-1.338,-1.3351,-1.3386,-1.3371,-1.3457,-1.3436,-1.3455,-1.3451,-1.352,-1.3515,-1.3745,-1.3773,-1.3553,-1.3555,-1.3557,0,-1.3344,-1.3389,-1.3379,-1.3399,-1.34,-1.3433,-1.345,-1.3409,-1.3429,-1.3436,-1.3472,-1.3503,-1.3526,-1.3586,-1.3571,-1.3598,-1.3579,-1.3658,-1.3583,-1.3595,-1.3584,-1.3582,-1.3588,-1.3674,-1.3677,-1.3679,-1.368,0,-1.3532,-1.3514,-1.3539,-1.356,-1.3581,-1.3595,-1.3606,-1.3626,-1.3584,-1.3609,-1.3644,-1.3662,-1.3697,-1.373,-1.3751,-1.375,-1.371,-1.3703,-1.3721,-1.3736,-1.3746,-1.3744,-1.3499,-1.3699,-1.3697,-1.3696,-1.3695,-1.3694,-1.3673,-1.3711,-1.371,-1.374,-1.3743,-1.3754,-1.3787,-1.3773,-1.3801,-1.3826,-1.38,-1.3843,-1.3847,-1.3871,-1.3875,-1.391,-1.3878,-1.3902,-1.3909,-1.3916,-1.3927,-1.3738,-1.3913,-1.3913,-1.3912,-1.3912,-1.3911,0,-1.386,-1.3856,-1.3884,-1.39,-1.3924,-1.388,-1.3889,-1.3913,-1.3951,-1.3957,-1.398,-1.4021,-1.4052,-1.4039,-1.4066,-1.4097,-1.4079,-1.4105,-1.4104,-1.4105,-1.3953,-1.3937,-1.4119,-1.4119,-1.4119,-1.4119,-1.4119,-1.4119,-1.3961,-1.4022,-1.4005,-1.4069,-1.4064,-1.4105,-1.4114,-1.4125,-1.4129,-1.4177,-1.4202,-1.4192,-1.419,-1.4217,-1.4244,-1.424,-1.4254,-1.4288,-1.4277,-1.4136,-1.4116,-1.4096,-1.408,-1.429,-1.4291,-1.4426,-1.4427,-1.4428]},{"header":{"parameterUnit":"m.s-1","parameterCategory":1,"la1":30.2991,"la2":30.254,"lo1":-89.0895,"lo2":-89.0444,"dy":0.0017,"dx":0.0017,"nx":28,"ny":28,"refTime":"2024-05-16T09:00:00:Z","depth":0,"parameterNumber":3,"parameterNumberName":"V-component_of_WINDS"},"data":[0,0,0,0,0,0,0,0,0,0,0,0,0,0,0,0,0,0,0,0,0,0,0,0,0,0,0,0,0,0,0,0,0,0,0,0,0,0,0,0,0,0,0,0,0,0,0,0,0,0,0,0,0,0,0,0,0,0,-1.4279,-1.428,0,-1.4329,-1.4329,-1.433,-1.4303,-1.4302,-1.43,-1.4299,-1.4348,-1.4351,-1.4353,0,0,0,0,0,0,0,0,0,0,0,0,0,-1.4161,-1.4163,-1.4279,-1.428,-1.4281,-1.4328,-1.4329,-1.433,-1.4303,-1.4302,-1.43,-1.4298,-1.4347,-1.435,-1.4354,0,0,0,0,0,0,0,0,0,0,0,0,0,-1.4212,-1.4164,-1.4279,-1.4273,-1.4273,-1.4328,-1.4329,-1.433,-1.4304,-1.4302,-1.4299,-1.4298,-1.4346,-1.435,-1.4354,-1.4418,0,0,-1.4366,-1.4367,0,0,0,0,0,0,0,0,-1.4209,-1.4216,-1.4273,-1.4274,-1.4274,-1.4308,-1.4305,-1.4359,-1.4304,-1.4292,-1.4299,-1.4297,-1.4336,-1.4341,-1.4354,-1.442,-1.4422,-1.4366,-1.4368,-1.437,-1.4371,0,0,0,0,0,0,0,-1.4205,-1.4214,-1.4299,-1.4274,-1.4274,-1.4267,-1.4272,-1.4316,-1.4325,-1.4293,-1.4291,-1.4297,-1.4336,-1.4351,-1.4355,-1.4423,-1.4366,-1.4369,-1.4372,-1.4373,-1.4544,-1.4546,0,0,0,0,0,0,-1.4202,-1.4211,-1.4297,-1.43,-1.4236,-1.4271,-1.4277,-1.4299,-1.4324,-1.4326,-1.4299,-1.4296,-1.4345,-1.4351,-1.4357,-1.4434,-1.437,-1.4374,-1.4376,-1.4542,-1.4544,-1.4547,0,0,0,0,0,0,-1.42,-1.421,-1.4295,-1.4255,-1.4265,-1.4275,-1.43,-1.4301,-1.4316,-1.4329,-1.433,-1.4313,-1.4344,-1.4352,-1.4403,-1.4435,-1.4375,-1.4379,-1.4539,-1.4543,-1.4546,-1.4588,0,0,0,0,0,0,-1.4197,-1.421,-1.4234,-1.4256,-1.4268,-1.4341,-1.4302,-1.4303,-1.4322,-1.4319,-1.4342,-1.4344,-1.4343,-1.4398,-1.4407,-1.444,-1.4382,-1.4536,-1.4541,-1.4545,-1.4584,-1.4593,-1.46,0,0,0,0,0,-1.4192,-1.4244,-1.4236,-1.4246,-1.4299,-1.4343,-1.435,-1.4348,-1.4325,-1.435,-1.4358,-1.4343,-1.443,-1.4403,-1.4413,-1.4448,-1.4534,-1.4539,-1.4544,-1.4581,-1.4591,-1.46,0,0,0,0,0,0,-1.4225,-1.4247,-1.4238,-1.4298,-1.4319,-1.4338,-1.4369,-1.4359,-1.4386,-1.4382,-1.4378,-1.4384,-1.4437,-1.4447,-1.4417,-1.4511,-1.4479,-1.4486,-1.4503,-1.4513,-1.4521,-1.4517,-1.4385,0,0,0,0,0,-1.4239,-1.4274,-1.429,-1.4342,-1.4353,-1.4359,-1.4379,-1.4375,-1.4397,-1.4406,-1.4418,-1.4439,-1.4471,-1.4492,-1.4522,-1.4585,-1.459,-1.4614,-1.4622,-1.4628,-1.4635,-1.4669,-1.468,-1.4563,-1.4563,-1.4563,0,0,-1.4269,-1.4285,-1.4307,-1.4349,-1.4365,-1.44,-1.4367,-1.4406,-1.4432,-1.4411,-1.4461,-1.4471,-1.4494,-1.4552,-1.4577,-1.4562,-1.4668,-1.4635,-1.464,-1.4643,-1.4676,-1.4687,-1.4697,-1.4567,-1.4566,-1.4566,0,0,-1.4342,-1.4357,-1.4402,-1.4419,-1.4443,-1.4447,-1.4458,-1.448,-1.4485,-1.4535,-1.4521,-1.4551,-1.4607,-1.4624,-1.464,-1.472,-1.4707,-1.4729,-1.4772,-1.4805,-1.4815,-1.4823,-1.4852,-1.4862,-1.4736,-1.4736,-1.4736,0,-1.4375,-1.4429,-1.4426,-1.4467,-1.4486,-1.4468,-1.4514,-1.453,-1.4563,-1.4577,-1.4558,-1.4628,-1.4642,-1.4704,-1.4723,-1.4737,-1.4749,-1.4727,-1.4813,-1.4822,-1.4829,-1.4857,-1.4868,-1.4739,-1.4738,-1.4738,-1.4738,0,-1.4469,-1.4507,-1.454,-1.4573,-1.4596,-1.4638,-1.4642,-1.4665,-1.466,-1.4666,-1.4717,-1.4733,-1.4767,-1.4781,-1.4776,-1.4843,-1.4832,-1.4814,-1.4781,-1.4843,-1.4869,-1.488,-1.4742,-1.4741,-1.4741,-1.474,0,0,-1.4564,-1.4596,-1.4608,-1.4623,-1.465,-1.4678,-1.472,-1.4753,-1.4773,-1.4797,-1.4832,-1.4879,-1.4863,-1.4881,-1.4878,-1.4907,-1.497,-1.4885,-1.4886,-1.4901,-1.5045,-1.5059,-1.5071,-1.4961,-1.4963,-1.4965,-1.5043,0,-1.4639,-1.4713,-1.4712,-1.4781,-1.4815,-1.4799,-1.4836,-1.4856,-1.4862,-1.4892,-1.4899,-1.4933,-1.4908,-1.4919,-1.4948,-1.4956,-1.4999,-1.495,-1.4994,-1.4996,-1.499,-1.5085,-1.51,-1.5173,-1.5053,-1.5055,-1.5056,0,-1.4737,-1.4764,-1.4837,-1.4858,-1.4873,-1.4906,-1.4936,-1.4965,-1.4987,-1.499,-1.5011,-1.5003,-1.5045,-1.5011,-1.5069,-1.5036,-1.5054,-1.5061,-1.5064,-1.5068,-1.503,-1.5093,-1.5196,-1.5208,-1.5072,-1.507,-1.5069,0,-1.48,-1.4855,-1.4905,-1.4919,-1.4945,-1.4968,-1.498,-1.5,-1.5021,-1.5047,-1.5061,-1.5091,-1.5109,-1.5133,-1.5133,-1.5108,-1.5193,-1.5158,-1.5196,-1.5196,-1.5215,-1.5214,-1.5324,-1.5225,-1.5225,-1.5225,-1.5225,0,-1.4884,-1.4929,-1.4934,-1.4965,-1.5015,-1.5013,-1.5062,-1.5072,-1.509,-1.5123,-1.511,-1.5141,-1.514,-1.5171,-1.5171,-1.522,-1.5228,-1.5231,-1.5231,-1.5233,-1.5233,-1.5245,-1.524,-1.5228,-1.5227,-1.5227,-1.5226,0,-1.4964,-1.4969,-1.5023,-1.5044,-1.505,-1.5086,-1.5103,-1.5133,-1.5138,-1.5179,-1.5189,-1.5197,-1.5233,-1.5236,-1.5278,-1.5278,-1.5337,-1.5331,-1.533,-1.5329,-1.5368,-1.5365,-1.549,-1.5507,-1.5396,-1.5397,-1.5398,0,-1.5018,-1.5052,-1.5077,-1.5098,-1.5112,-1.5146,-1.5167,-1.5166,-1.5188,-1.5216,-1.5242,-1.5277,-1.5305,-1.5363,-1.5373,-1.5404,-1.5399,-1.5441,-1.5404,-1.5405,-1.5401,-1.54,-1.5403,-1.5449,-1.545,-1.5451,-1.5452,0,-1.5114,-1.5115,-1.5145,-1.5178,-1.5203,-1.5228,-1.5251,-1.5269,-1.5271,-1.5296,-1.5333,-1.5355,-1.5398,-1.5433,-1.5464,-1.5476,-1.5465,-1.5463,-1.5474,-1.5477,-1.5475,-1.5478,-1.5351,-1.5461,-1.546,-1.5459,-1.5459,-1.5458,-1.5183,-1.5213,-1.5235,-1.527,-1.5288,-1.531,-1.5339,-1.5348,-1.5379,-1.5414,-1.5411,-1.5453,-1.5474,-1.5515,-1.5529,-1.5561,-1.5547,-1.5562,-1.5566,-1.557,-1.5574,-1.5469,-1.5566,-1.5566,-1.5566,-1.5565,-1.5565,0,-1.5279,-1.5292,-1.5324,-1.5358,-1.5386,-1.5372,-1.5398,-1.5421,-1.5458,-1.5479,-1.5507,-1.555,-1.5584,-1.5596,-1.5629,-1.5652,-1.5648,-1.5661,-1.566,-1.5663,-1.5585,-1.5573,-1.5664,-1.5664,-1.5664,-1.5664,-1.5664,-1.5664,-1.5332,-1.5383,-1.5386,-1.5445,-1.5458,-1.5499,-1.5515,-1.5535,-1.5552,-1.5601,-1.5629,-1.5637,-1.5654,-1.5688,-1.5719,-1.5722,-1.5735,-1.575,-1.5751,-1.5678,-1.5668,-1.5659,-1.5647,-1.5753,-1.5753,-1.5827,-1.5827,-1.5828]}]]